Regional Weather Roundup
Issued by NWS

Home | Current Version | Previous Version | Text Only | Print | Product List | Glossary Off
Versions: 1 2 3 4 5 6 7 8 9 10 11 12 13 14 15 16 17 18 19 20 21 22 23 24 25 26 27 28 29 30 31 32 33 34 35 36 37 38 39 40 41 42 43 44 45 46 47 48 49 50

000
ASUS43 KTOP 280659
RWRKS

WEATHER ROUNDUP FOR KANSAS
NATIONAL WEATHER SERVICE GOODLAND KS
100 AM CST SAT FEB 28 2015

NOTE:  "FAIR" INDICATES FEW OR NO CLOUDS BELOW 12,000 FEET WITH NO
SIGNIFICANT WEATHER AND/OR OBSTRUCTIONS TO VISIBILITY.

KSZ001>006-013>018-027>032-041>047-280800-
NORTHWEST KANSAS

CITY           SKY/WX    TMP DP  RH WIND       PRES   REMARKS
GOODLAND       LGT SNOW  11   8  88 S14       30.14F FOG     WCI  -5
HAYS           CLOUDY    12   0  57 SE12      30.35F WCI  -2
HILL CITY      CLOUDY    15   6  67 S10       30.33F WCI   2
RUSSELL        MOCLDY    11   8  88 S8        30.37F
$$

KSZ061>065-074>080-084>089-280800-
SOUTHWEST KANSAS

CITY           SKY/WX    TMP DP  RH WIND       PRES   REMARKS
DODGE CITY     CLOUDY    11   7  84 SE15      30.30F WCI  -5
ELKHART          N/A     13   5  70 SE15        N/A  WCI  -3
GARDEN CITY    LGT SNOW   9   7  92 SE14      30.23F FOG     WCI  -7
GREAT BEND     CLOUDY    10   3  72 SE7       30.39F
LIBERAL        CLOUDY    12   7  79 E9        30.24F
$$

KSZ066>073-081>083-090>101-280800-
SOUTHEAST KANSAS

CITY           SKY/WX    TMP DP  RH WIND       PRES   REMARKS
CHANUTE        CLOUDY    17   9  70 E5        30.51S
COFFEYVILLE    CLOUDY    17  14  88 NE6       30.51F
HUTCHINSON     CLOUDY    15  10  80 SE7       30.43F
MEDICINE LODGE   N/A     15  11  83 SE5       30.42S
NEWTON         CLOUDY    14   7  73 SE7       30.45S
PARSONS        CLOUDY    20  12  71 VRB3      30.52F
WICHITA INTL   CLOUDY    16  10  77 SE8       30.45F
WICHITA JABRA  CLOUDY    14  10  84 SE6       30.45F
WINFIELD       CLOUDY    16  11  80 E9        30.47F
$$

KSZ007>012-019>026-033>040-048>060-102>105-280800-
NORTHEAST KANSAS

CITY           SKY/WX    TMP DP  RH WIND       PRES   REMARKS
CONCORDIA      PTCLDY     8   6  92 S8        30.44F
EMPORIA        CLOUDY    15   9  76 E8        30.47F
LAWRENCE       CLOUDY    14   6  70 E5        30.54F
MANHATTAN      PTCLDY    14   8  77 CALM      30.50S
OLATHE IND     CLOUDY    16   6  65 E6        30.52F
OLATHE EXE     CLOUDY    17   5  59 E5        30.51F
SALINA         CLEAR      9   5  84 SE6       30.47S
TOPEKA BILLARD CLOUDY    16   5  62 E3        30.54S
TOPEKA FORBES  PTCLDY    16   5  62 CALM      30.51S
$$



USA.gov is the U.S. government's official web portal to all federal, state and local government web resources and services.